RH
8 8 8 8 7 7 7 7 7 7 7 7 7 7 7 7 6 7 6 6 6 6 6 6 5 5 4 5 7 9 10 10 11 12 15 16 14 14 15 16 18 19 21 25 27 31 36 37 37 39 42 44 45 47 48 48 50 55 63 75 73 69 76 77 72 68 67 69 66 63 67 68 62 54 47 42 44 46 46 51 53 52 57 56 45 38 40 44
8 8 8 8 8 7 7 7 7 7 6 6 6 6 6 6 6 6 6 6 6 6 6 6 6 5 5 4 4 6 7 10 11 14 18 16 12 12 14 15 17 18 20 25 25 27 33 37 37 39 41 44 45 44 44 46 49 54 64 79 76 68 71 70 67 65 65 69 67 64 67 71 69 59 55 52 42 41 47 49 53 54 54 50 40 39 44 46
9 8 8 8 8 8 8 8 7 7 7 6 6 6 6 6 7 7 7 7 6 6 6 5 5 5 5 5 5 5 5 9 13 16 17 14 11 12 12 14 16 16 20 24 23 23 28 33 35 39 41 43 46 43 42 45 48 51 59 73 73 65 65 66 66 66 66 68 68 67 67 69 71 63 63 61 47 46 51 48 52 52 47 44 42 43 45 46
9 9 8 8 8 8 8 7 8 7 7 7 8 8 8 8 8 9 8 8 7 6 5 5 5 4 5 5 5 7 6 10 16 15 12 11 9 11 11 13 15 15 18 20 20 20 23 27 33 39 40 43 47 40 38 43 42 45 51 58 62 60 62 63 61 62 64 67 71 70 68 70 70 65 67 67 55 53 54 49 52 51 44 43 43 43 44 47
9 9 9 9 8 8 8 8 8 8 8 8 9 9 9 9 9 9 9 9 7 6 5 4 4 4 4 4 5 7 11 17 21 14 9 8 7 8 9 11 14 15 17 16 16 18 20 25 33 39 38 42 46 40 37 37 34 40 47 49 52 55 61 60 53 56 59 60 67 69 69 71 68 66 70 71 64 60 55 50 51 48 43 42 42 43 44 45
8 8 9 9 8 8 8 8 8 8 9 9 9 9 9 9 9 9 9 8 7 7 7 5 4 4 4 5 6 8 15 23 23 16 11 8 6 6 7 10 12 14 16 14 14 15 19 27 33 38 38 40 45 42 36 32 31 39 46 49 49 49 53 53 50 55 56 55 63 67 68 69 68 68 72 73 71 64 53 49 51 46 42 41 42 44 44 45
9 8 8 8 8 8 8 8 9 9 9 9 9 9 9 9 9 8 8 7 7 8 8 6 5 4 5 6 7 9 18 24 20 15 13 9 7 5 5 9 9 12 14 13 12 13 20 28 33 35 35 40 44 37 30 28 29 34 41 47 49 49 48 46 47 52 53 55 61 64 66 70 70 71 74 76 74 64 52 49 52 47 43 41 41 45 47 47
9 9 9 8 8 9 9 9 9 9 9 9 8 8 8 8 8 8 8 7 7 7 8 7 6 6 7 7 11 16 21 22 16 13 12 10 9 6 6 7 8 11 12 12 11 12 20 27 32 32 33 40 42 33 27 27 32 37 42 46 49 53 49 42 43 48 52 56 58 59 62 68 71 71 76 80 73 62 52 51 53 47 45 45 42 46 49 48
10 10 9 9 9 8 8 9 9 9 8 8 8 8 8 8 8 8 8 8 7 7 8 7 6 8 9 8 15 22 23 20 14 11 11 11 10 8 7 7 8 9 10 12 10 11 19 24 28 31 33 35 32 28 26 29 41 47 47 49 48 49 49 44 44 48 51 54 56 59 63 70 73 71 77 80 73 62 50 50 54 49 49 49 47 47 48 49
9 9 9 9 9 8 8 9 9 8 8 9 9 8 8 8 8 8 8 8 7 6 7 8 7 9 9 12 20 22 21 20 15 12 12 13 12 10 9 9 8 8 9 11 9 12 16 21 26 28 30 29 24 25 26 33 44 47 48 52 46 43 47 45 45 49 52 56 57 60 68 75 76 76 80 78 73 64 50 48 53 52 51 51 52 51 50 51
8 9 9 9 8 8 8 8 8 8 9 9 9 8 8 8 8 9 8 8 8 7 7 7 8 9 9 14 20 18 17 18 15 14 14 14 14 12 11 10 8 8 8 9 9 12 14 19 24 25 26 25 23 24 28 35 42 45 48 52 47 44 47 45 46 49 52 60 61 62 74 82 84 85 85 79 73 64 50 48 53 53 52 53 55 52 50 52
8 8 8 8 8 8 8 8 8 9 9 9 8 8 8 8 8 9 9 9 9 9 9 8 9 9 9 14 16 13 14 14 13 14 13 14 14 12 11 9 9 8 7 9 9 10 13 18 21 22 23 20 21 26 32 38 43 46 46 49 50 51 54 49 45 49 55 63 65 69 79 86 90 90 86 80 75 65 52 50 53 53 53 55 57 52 49 50
7 8 8 7 7 8 8 8 8 9 8 8 7 7 7 7 8 9 9 10 10 10 10 11 10 9 14 18 13 10 12 12 12 12 12 14 14 13 11 9 9 8 8 8 8 9 12 17 19 20 19 17 22 28 34 42 46 47 47 51 54 58 65 60 53 56 60 64 67 72 82 88 89 87 85 80 74 66 54 49 52 54 53 56 56 51 51 48
7 7 7 7 7 8 8 8 9 9 8 8 8 7 7 7 8 9 10 10 10 11 11 11 11 12 18 17 12 9 10 10 11 11 11 11 12 13 11 10 9 8 8 7 8 10 12 16 18 18 18 17 22 26 30 40 47 47 48 53 55 60 69 66 61 64 64 65 68 72 85 94 91 87 85 78 72 66 57 50 53 55 54 56 54 51 53 50
6 7 7 6 7 7 7 8 9 8 8 8 7 7 6 7 8 9 10 10 10 11 11 11 11 15 20 17 12 9 8 10 12 12 11 9 12 13 11 10 9 8 8 8 8 10 12 15 17 19 22 18 16 20 30 42 47 45 46 49 52 61 71 68 64 63 62 65 67 71 86 94 89 86 84 74 68 66 59 53 53 55 56 57 55 52 54 52
6 6 6 6 7 7 7 8 9 8 8 8 7 7 6 7 7 9 10 10 11 11 11 13 14 17 20 15 12 11 12 14 13 11 9 9 13 15 12 10 9 8 8 8 9 10 11 13 16 19 23 23 19 22 34 44 45 43 42 42 47 59 68 67 68 67 61 62 67 73 84 88 84 82 78 69 64 64 59 53 54 55 56 58 57 55 56 52
6 6 6 6 7 7 8 9 9 8 8 9 8 7 6 8 8 9 10 11 12 12 12 14 16 18 16 12 13 14 15 14 12 12 9 9 12 13 11 10 9 8 8 9 9 10 10 11 15 16 18 25 29 31 37 42 40 40 40 42 49 57 60 61 68 70 62 66 71 74 79 80 80 79 73 65 61 61 57 52 53 54 55 58 56 57 59 54
6 6 6 6 7 7 8 9 9 8 9 10 9 8 8 9 9 10 11 12 15 17 16 14 17 22 17 12 13 13 13 13 11 12 10 9 10 11 11 11 10 8 9 11 10 10 11 11 14 18 21 26 30 33 40 42 39 40 41 47 55 56 58 61 65 65 66 74 75 73 77 76 75 75 68 63 58 56 57 53 52 52 52 54 54 57 61 58
6 5 6 6 6 7 9 9 9 9 10 10 9 9 10 11 12 12 11 14 18 21 20 15 16 20 17 12 12 12 12 11 11 12 12 10 10 11 12 11 11 10 13 15 13 12 13 15 16 19 25 29 29 31 38 44 43 43 41 44 52 54 58 60 59 60 63 73 77 75 78 74 72 72 66 63 56 53 57 55 52 50 50 51 50 54 59 59
8 6 6 6 6 7 9 9 9 10 11 11 10 11 14 17 19 16 13 18 20 18 16 14 13 15 14 12 12 12 11 10 11 13 12 11 11 12 11 11 11 11 16 19 18 16 15 17 18 16 20 28 33 32 36 44 44 41 36 35 46 53 56 53 53 56 52 62 78 78 79 79 74 69 65 64 58 55 57 56 53 51 49 50 47 49 54 55
10 7 6 7 7 7 9 10 9 10 11 11 11 13 16 18 18 17 17 18 17 15 15 14 13 14 13 13 13 12 12 10 11 12 11 11 11 12 10 10 11 12 17 20 19 16 12 14 17 17 18 25 34 35 35 39 39 36 31 28 37 47 49 47 50 52 46 54 68 66 70 80 76 70 68 66 63 60 57 54 54 52 51 51 48 48 52 51
11 9 7 7 7 8 9 10 9 11 12 11 12 12 13 15 15 16 17 18 15 14 16 14 14 14 12 13 13 12 13 13 11 11 10 10 12 13 12 11 12 14 15 16 16 13 11 13 15 17 18 20 26 27 25 29 31 31 27 21 28 38 42 45 49 50 45 48 55 53 59 72 74 72 72 70 67 63 58 55 54 53 51 51 51 50 51 50
10 10 9 7 7 8 9 11 11 11 11 12 13 12 12 13 13 15 19 20 17 15 15 15 14 14 13 14 13 12 16 17 14 12 9 11 13 13 13 12 12 14 15 13 13 14 17 15 12 15 18 17 17 17 16 20 23 24 22 18 25 32 35 42 48 49 47 47 51 54 60 67 71 71 70 69 67 65 60 56 55 56 52 49 50 52 53 50
10 11 10 8 7 8 9 11 12 11 12 13 12 12 13 13 13 16 19 21 20 16 14 15 14 14 14 14 13 14 17 16 16 14 9 12 15 13 13 12 11 11 12 12 11 14 17 14 12 13 14 13 13 14 15 16 17 19 19 18 25 33 34 37 43 46 46 48 51 56 60 65 69 72 70 67 65 65 62 57 54 55 54 51 50 51 53 51
9 10 10 9 8 8 9 11 12 12 12 12 13 13 13 13 14 16 18 21 21 17 14 14 14 14 13 13 13 14 15 14 16 15 10 12 15 15 14 13 12 13 13 12 11 12 12 11 11 11 10 10 12 13 14 14 15 18 20 18 21 30 35 33 36 42 44 46 50 51 55 63 66 66 70 71 66 65 64 60 57 54 53 55 54 51 50 50
9 9 10 9 8 8 8 11 13 12 11 12 13 14 13 13 14 16 21 25 22 17 16 15 14 14 13 13 14 16 17 15 14 13 12 12 12 14 15 14 14 16 15 12 11 13 13 12 11 10 10 10 10 11 12 13 13 16 22 24 21 24 28 26 28 36 40 42 45 43 47 61 69 67 70 72 70 69 67 63 60 56 54 56 59 56 49 47
10 8 9 9 8 8 8 11 15 14 12 13 13 13 14 13 14 16 23 28 22 17 17 15 14 14 13 13 14 17 19 17 15 13 12 12 12 14 17 15 13 13 13 14 18 17 15 15 12 11 12 11 11 11 10 11 11 14 22 28 26 20 20 21 23 30 34 34 36 38 43 55 67 73 74 73 73 74 73 68 64 62 59 57 60 63 55 47
13 9 8 9 8 7 8 11 15 14 13 13 13 13 14 13 15 18 26 32 24 16 15 13 13 13 12 12 12 15 18 18 18 18 14 13 14 16 18 16 14 15 12 18 26 22 16 17 15 13 13 15 15 14 11 10 10 16 21 23 23 19 17 19 22 28 32 33 35 38 43 53 63 71 76 76 74 74 76 75 71 68 66 62 59 63 62 52
14 11 8 8 8 8 8 9 12 14 14 13 12 13 14 14 16 19 27 31 23 15 14 13 12 12 11 12 13 14 17 17 19 18 15 14 14 16 19 16 15 16 13 17 23 19 16 17 15 14 16 18 18 13 11 10 11 16 19 17 18 16 16 19 22 28 33 37 39 38 42 52 60 65 72 77 75 75 77 77 74 70 70 70 63 62 65 61
15 13 9 8 8 8 7 8 10 13 15 13 12 14 15 16 18 23 29 27 18 14 14 13 13 12 11 13 14 15 16 16 16 16 16 17 16 15 17 15 13 15 14 14 15 16 16 14 12 14 16 17 16 13 11 10 10 14 16 17 18 17 17 21 24 29 36 39 38 36 38 47 55 60 67 72 71 73 78 76 73 73 74 75 72 69 69 68
14 13 10 7 8 8 7 8 9 12 15 13 13 15 15 17 20 28 32 24 15 13 13 13 13 12 12 13 14 14 15 16 15 17 18 18 17 16 15 17 16 16 17 16 16 16 15 14 15 15 14 15 15 14 13 11 11 14 17 23 29 29 27 25 25 28 33 36 34 36 39 42 52 61 67 70 67 70 80 79 75 76 76 76 75 74 72 71
13 13 12 8 8 8 7 10 11 11 13 13 15 15 17 21 23 25 26 20 15 14 13 13 13 12 13 12 12 13 14 15 15 17 18 17 19 17 16 18 17 18 24 24 22 21 18 18 18 15 14 15 15 16 15 15 15 15 19 29 36 38 37 33 31 30 30 31 31 36 39 41 52 61 65 71 69 70 80 82 78 75 74 74 74 73 72 74
13 13 12 9 8 8 7 10 10 10 12 14 16 16 18 26 29 26 21 16 14 14 12 13 13 13 13 12 12 13 13 14 14 16 15 14 17 16 15 14 15 22 29 27 25 24 24 26 22 17 17 15 15 20 23 25 25 19 23 33 34 34 38 37 34 33 32 30 30 35 38 43 56 62 63 70 73 74 76 77 77 73 69 71 74 73 72 75
14 13 12 9 8 8 7 8 9 9 12 15 16 17 21 26 28 26 20 14 13 13 12 13 13 13 12 13 13 12 13 14 13 15 15 14 18 23 21 14 15 21 23 23 26 23 26 34 28 22 23 19 16 21 24 26 27 24 27 35 33 29 33 34 31 31 31 30 31 35 40 48 61 65 64 68 72 73 73 72 72 71 69 69 71 72 72 76
14 13 11 9 9 9 7 8 8 8 12 17 17 19 23 26 26 25 21 15 12 13 12 12 14 14 13 13 13 12 13 15 15 14 15 19 27 31 25 17 16 17 17 24 29 24 25 33 29 23 23 20 18 20 18 16 22 27 29 31 31 28 29 29 27 28 30 32 35 36 41 51 60 63 65 67 67 64 67 71 70 69 71 71 70 69 71 78
14 13 11 10 11 10 8 8 8 8 13 17 17 19 23 25 27 25 20 15 14 13 12 13 13 13 15 15 14 12 13 15 16 14 15 18 22 23 19 17 16 15 17 23 27 25 27 30 29 26 23 18 18 20 18 16 22 30 31 29 27 26 28 31 32 31 31 34 36 34 40 51 56 61 65 67 67 62 62 67 68 68 69 70 70 67 68 74
13 13 14 16 15 11 9 8 8 9 14 17 18 21 22 24 25 22 18 16 15 14 13 16 15 14 19 22 18 14 13 14 13 17 21 19 17 18 17 16 17 15 17 19 20 23 26 29 30 28 24 21 19 18 18 17 20 28 31 29 28 28 28 28 30 35 36 34 33 30 36 45 51 59 64 65 68 63 57 59 66 71 69 68 71 72 71 72
15 13 14 18 17 12 9 9 9 11 15 17 19 22 24 25 24 21 19 17 16 15 14 17 19 17 19 22 24 20 16 16 16 18 25 24 20 19 17 16 17 16 15 16 19 19 19 24 29 25 21 22 19 16 18 18 17 21 24 25 29 32 32 28 27 32 34 32 32 28 29 39 50 60 64 63 66 60 52 54 61 69 73 72 73 74 74 74
22 19 18 19 17 12 10 10 10 11 15 17 18 21 22 24 25 23 20 17 17 16 14 16 19 18 17 18 25 25 18 20 23 20 24 27 22 19 17 17 18 17 16 15 18 18 16 21 30 28 21 20 19 17 22 27 26 23 19 19 26 30 32 34 32 33 33 32 35 30 31 48 60 64 66 63 62 59 54 54 56 62 72 75 74 75 74 73
29 28 27 24 18 13 11 11 12 13 16 18 18 20 22 24 26 23 19 17 18 17 15 16 17 16 17 17 22 27 22 21 24 25 26 26 22 19 17 17 17 17 16 14 16 18 16 20 29 30 22 20 24 25 27 34 36 33 27 25 30 31 31 33 31 31 32 35 39 33 37 59 68 63 63 60 58 60 57 55 55 58 69 75 76 77 76 71
32 30 31 30 22 16 14 13 13 15 17 17 17 21 24 25 27 25 20 18 19 19 17 17 16 15 16 16 19 24 23 19 19 24 26 23 21 22 19 17 18 16 16 19 19 18 17 20 25 28 26 28 34 32 27 29 31 32 31 30 35 38 38 38 34 31 31 34 39 34 38 61 67 57 55 54 54 59 59 55 55 60 69 76 78 79 78 75
31 29 32 33 26 21 18 16 17 17 17 17 18 22 25 25 25 25 23 20 19 20 18 17 16 16 16 17 21 23 21 19 18 20 24 24 25 26 20 17 18 14 15 22 23 18 17 19 20 24 26 28 31 29 25 24 24 25 26 28 32 35 38 41 40 37 35 33 34 32 37 55 61 53 51 51 52 56 57 55 53 57 67 75 79 79 78 79
31 28 30 31 27 25 24 22 22 20 18 19 21 23 24 24 24 24 24 23 20 20 20 18 17 17 16 17 21 21 19 22 22 21 25 27 27 24 19 16 16 14 14 19 21 17 15 19 19 23 27 25 22 22 21 21 21 22 25 27 29 32 34 37 37 39 41 39 37 33 36 50 58 55 52 50 50 53 56 57 56 57 65 74 79 79 79 80
29 28 28 28 26 26 28 28 27 24 21 22 23 24 23 22 21 24 26 26 23 21 21 20 17 17 18 18 20 20 20 24 26 23 24 29 27 22 18 17 15 15 17 20 22 19 17 22 23 23 30 32 29 28 27 25 23 22 25 29 33 35 34 33 35 37 39 41 44 40 42 57 62 57 53 50 48 49 53 59 61 60 64 72 80 81 78 78
31 31 30 28 26 25 27 30 31 31 30 27 23 23 23 22 20 23 27 27 25 23 21 21 18 17 19 19 19 21 20 23 29 28 26 26 25 21 19 17 15 18 20 20 20 17 17 24 25 23 29 37 41 41 38 35 32 30 30 30 33 37 36 36 39 39 37 40 45 44 51 65 69 63 59 55 49 47 50 56 61 61 62 70 79 81 77 77
38 37 34 32 29 26 26 29 33 36 36 32 27 24 23 22 21 21 24 27 28 26 22 21 19 18 19 20 20 21 20 20 25 29 27 24 24 23 21 18 17 21 23 19 16 15 16 21 23 22 24 31 37 38 35 32 32 35 36 32 32 35 38 40 41 39 40 41 42 47 53 60 69 75 72 63 55 53 53 55 56 56 61 69 78 81 78 79
43 43 44 42 39 33 29 29 32 34 35 34 32 29 25 22 24 24 23 26 29 28 24 22 21 19 20 21 20 21 23 23 24 27 26 25 27 29 25 21 21 22 19 15 14 15 18 20 21 20 20 20 23 23 22 23 22 25 28 29 31 35 38 41 40 38 42 42 42 53 58 54 61 76 78 68 62 59 57 57 54 52 59 68 74 78 79 80
47 48 48 47 47 43 37 34 33 33 35 35 33 32 28 22 25 28 28 28 29 29 27 24 23 21 21 22 23 25 30 32 31 29 27 27 31 35 31 25 24 23 18 17 19 17 17 22 27 25 21 17 18 17 16 17 17 19 23 26 28 31 35 40 41 40 45 47 45 50 55 53 56 66 71 67 63 61 60 60 57 53 59 68 72 74 78 81
49 49 48 46 46 46 44 44 41 39 40 41 39 36 32 27 27 31 32 31 30 28 27 26 24 22 22 23 24 28 35 39 36 34 33 31 31 36 37 32 29 27 21 21 24 18 14 22 29 27 22 18 18 18 16 16 17 20 24 25 26 29 32 35 39 44 50 51 47 44 48 54 57 60 63 62 61 62 62 61 60 62 65 70 73 76 79 82
47 48 49 48 44 44 45 47 46 44 45 46 44 40 38 35 33 33 34 34 32 29 26 25 26 24 23 24 26 29 34 38 38 38 39 36 33 33 36 38 38 34 26 23 26 21 15 21 27 25 22 20 18 18 19 18 18 21 23 24 25 28 32 34 39 46 49 51 52 50 51 58 60 59 59 61 63 65 64 62 63 69 73 73 75 78 81 82
44 44 47 47 45 44 43 42 44 45 46 46 45 42 40 39 37 37 37 36 34 31 28 26 26 27 27 27 29 32 34 36 37 37 38 38 37 36 35 37 40 39 32 25 24 21 17 19 23 21 20 22 22 21 21 20 20 22 22 24 25 27 32 40 46 48 46 47 53 55 55 59 60 58 60 64 65 66 65 64 65 68 72 74 76 78 80 82
44 44 46 47 47 47 44 43 43 45 46 48 48 46 43 41 39 38 40 41 37 33 34 33 28 29 32 31 31 33 34 36 36 36 37 38 37 37 37 38 38 37 36 30 24 21 20 20 23 21 20 28 32 26 21 21 22 22 22 24 26 29 34 41 47 48 41 38 44 50 53 55 56 59 66 69 67 66 66 68 69 69 69 71 74 77 80 82